Location: Barrio de Buenos Aires
(28.4500°N, 16.2667°W)
Time: 14:58:12
(UTC+00:00)

CSL-04 Debris - Pass Details

Date: 24 January 2020
Orbit: 828 x 848 km, 99.0° (Epoch: 22 February)

Event Time Altitude Azimuth Distance (km) Brightness Sun altitude
Rises 19:57:36 0° 169° (SSE) 3,351 7.3 -17.6°
Reaches altitude 10° 19:59:56 10° 170° (S) 2,421 6.6 -18.1°
Maximum altitude 20:05:18 80° 257° (WSW) 843 4.2 -19.3°
Drops below altitude 10° 20:10:42 10° 344° (NNW) 2,436 6.6 -20.4°
Sets 20:13:04 0° 346° (NNW) 3,374 7.4 -20.9°
